Weather in Posyolok Imeni Morozova

Russia / Saint-Petersburg and Leningrad Oblast     59°58′28″N   31°02′05″E
temp.,
°C
wind,
m/s
gust,
m/s
humid.,
%
clouds,
%
prec.,
mm/h
press.,
hPa
HPBL,
m
9 may, sun
sun900:00+1wsw389625 0.0 1009195
03:00+1w310943 0.0 1010230
06:00+1w39913 0.0 1012217
09:00+6w47720 0.0 1014498
12:00+9w464820 0.1 10161825
15:00+10w564113 0.1 10171603
18:00+10w37435 0.0 1018942
21:00+5ssw226696 0.0 101915
10 may, mon
mon1000:00+3s387899 0.0 1020134
03:00+5s41272100 0.0 1021287
06:00+6s51367100 0.0 1021563
09:00+6s61689100 1.3 1020811
12:00+6s61388100 0.4 1021508
15:00+16ssw5963100 0.4 10201043
18:00+17ssw496161 0.0 10201338
21:00+14s51374100 0.0 1021419
11 may, tue
tue1100:00+13ssw51579100 0.0 1022469
03:00+11ssw5148582 0.0 1024370
06:00+11ssw4128696 0.0 1024328
09:00+15ssw4106693 0.0 1025461
12:00+19ssw574936 0.0 1026945
15:00+21ssw57430 0.0 10251191
18:00+20s47500 0.0 10251030
21:00+14sse36754 0.0 1025106
12 may, wed
wed1200:00+12s26815 0.0 102687
03:00+10s27892 0.0 1026118
06:00+10sse25820 0.0 1026119
09:00+16sse35550 0.0 1026404
12:00+19se35390 0.0 1025963
15:00+21se34410 0.0 10241234
18:00+20ene24500 0.0 1023564
21:00+14ene22735 0.0 102230
13 may, thu
thu1300:00+16se3117631 0.0 1022387
03:00+12ese39967 0.0 1021210
06:00+13ese3119181 0.0 1020341
09:00+13e31092100 0.7 1019426
12:00+15ese498462 0.9 1017716
15:00+17se487335 2.4 10161254
18:00+16sse486850 1.0 10151135
21:00+13se258430 1.3 101695